| time (UTC) | temp F | wind direction | speed knots | gust knots | rain 1hr in | rain 24hr in | rain mn in | humidity % | barometer mb |
| 20260506113847 | 76 | 117 | 5.2 | 6.1 | 0.00 | 0.00 | 0.00 | 89 | 1010.8 |
| 20260506113344 | 76 | 104 | 5.2 | 7.0 | 0.00 | 0.00 | 0.00 | 89 | 1010.8 |
| 20260506112840 | 76 | 108 | 5.2 | 7.0 | 0.00 | 0.00 | 0.00 | 89 | 1010.8 |
| 20260506112337 | 76 | 110 | 7.0 | 7.8 | 0.00 | 0.00 | 0.00 | 89 | 1010.8 |
| 20260506111835 | 76 | 109 | 7.8 | 9.6 | 0.00 | 0.00 | 0.00 | 90 | 1011.1 |
| 20260506111333 | 76 | 115 | 5.2 | 6.1 | 0.00 | 0.00 | 0.00 | 90 | 1010.8 |
| 20260506110830 | 76 | 112 | 5.2 | 7.0 | 0.00 | 0.00 | 0.00 | 90 | 1010.8 |
| 20260506110327 | 76 | 112 | 5.2 | 6.1 | 0.00 | 0.00 | 0.00 | 90 | 1010.8 |
| 20260506105824 | 76 | 101 | 4.3 | 5.2 | 0.00 | 0.00 | 0.00 | 90 | 1010.8 |
| 20260506105320 | 76 | 110 | 7.0 | 8.7 | 0.00 | 0.00 | 0.00 | 90 | 1010.8 |
| 20260506104818 | 76 | 104 | 8.7 | 10.4 | 0.00 | 0.00 | 0.00 | 90 | 1010.8 |
| 20260506104316 | 76 | 83 | 3.5 | 6.1 | 0.00 | 0.00 | 0.00 | 90 | 1010.8 |
| 20260506103813 | 76 | 117 | 5.2 | 7.0 | 0.00 | 0.00 | 0.00 | 90 | 1010.8 |
| 20260506103310 | 76 | 120 | 4.3 | 5.2 | 0.00 | 0.00 | 0.00 | 90 | 1010.8 |
| 20260506102808 | 76 | 104 | 5.2 | 7.8 | 0.00 | 0.00 | 0.00 | 90 | 1010.4 |
| 20260506102306 | 76 | 107 | 6.1 | 7.8 | 0.00 | 0.00 | 0.00 | 90 | 1010.4 |
| 20260506101803 | 76 | 111 | 5.2 | 6.1 | 0.00 | 0.00 | 0.00 | 90 | 1010.4 |
| 20260506101258 | 76 | 116 | 6.1 | 7.8 | 0.00 | 0.00 | 0.00 | 90 | 1010.4 |
| 20260506100757 | 76 | 104 | 4.3 | 6.1 | 0.00 | 0.00 | 0.00 | 90 | 1010.4 |
| 20260506100254 | 76 | 136 | 5.2 | 10.4 | 0.00 | 0.00 | 0.00 | 90 | 1010.1 |
| 20260506095753 | 76 | 114 | 7.8 | 13.0 | 0.00 | 0.00 | 0.00 | 90 | 1010.1 |
| 20260506095249 | 76 | 129 | 4.3 | 8.7 | 0.00 | 0.00 | 0.00 | 90 | 1010.1 |
| 20260506094746 | 76 | 111 | 5.2 | 8.7 | 0.00 | 0.00 | 0.00 | 90 | 1010.1 |
| 20260506094244 | 76 | 141 | 9.6 | 14.8 | 0.00 | 0.00 | 0.00 | 90 | 1010.1 |
| 20260506093743 | 76 | 127 | 7.0 | 10.4 | 0.00 | 0.00 | 0.00 | 90 | 1010.1 |
| 20260506093239 | 76 | 110 | 7.0 | 11.3 | 0.00 | 0.00 | 0.00 | 90 | 1009.7 |
| 20260506092737 | 76 | 137 | 7.0 | 9.6 | 0.00 | 0.00 | 0.00 | 90 | 1009.7 |
| 20260506092235 | 76 | 95 | 2.6 | 6.1 | 0.00 | 0.00 | 0.00 | 90 | 1009.7 |
| 20260506091732 | 76 | 144 | 7.0 | 10.4 | 0.00 | 0.00 | 0.00 | 90 | 1009.7 |
| 20260506091229 | 76 | 135 | 7.0 | 11.3 | 0.00 | 0.00 | 0.00 | 91 | 1009.7 |
| 20260506090727 | 76 | 121 | 7.0 | 10.4 | 0.00 | 0.00 | 0.00 | 91 | 1009.7 |
| 20260506090224 | 76 | 111 | 7.8 | 9.6 | 0.00 | 0.00 | 0.00 | 90 | 1009.7 |
| 20260506085721 | 76 | 105 | 7.0 | 9.6 | 0.00 | 0.00 | 0.00 | 90 | 1009.7 |
| 20260506085217 | 76 | 114 | 7.0 | 13.0 | 0.00 | 0.00 | 0.00 | 90 | 1009.7 |
| 20260506084714 | 76 | 115 | 7.8 | 9.6 | 0.00 | 0.00 | 0.00 | 90 | 1009.7 |
| 20260506084210 | 76 | 127 | 7.0 | 10.4 | 0.00 | 0.00 | 0.00 | 90 | 1009.7 |
| 20260506083707 | 76 | 135 | 6.1 | 7.8 | 0.00 | 0.00 | 0.00 | 90 | 1009.7 |
| 20260506083205 | 76 | 107 | 7.8 | 11.3 | 0.00 | 0.00 | 0.00 | 90 | 1009.7 |
| 20260506082702 | 76 | 108 | 7.8 | 9.6 | 0.00 | 0.00 | 0.00 | 90 | 1009.7 |
| 20260506082202 | 76 | 133 | 4.3 | 7.8 | 0.00 | 0.00 | 0.00 | 90 | 1009.7 |
| 20260506081700 | 76 | 113 | 7.8 | 9.6 | 0.00 | 0.00 | 0.00 | 90 | 1009.7 |
| 20260506081158 | 76 | 114 | 7.8 | 10.4 | 0.00 | 0.00 | 0.00 | 90 | 1009.7 |
| 20260506080655 | 76 | 110 | 8.7 | 11.3 | 0.00 | 0.00 | 0.00 | 90 | 1009.7 |
| 20260506080152 | 76 | 112 | 7.0 | 9.6 | 0.00 | 0.00 | 0.00 | 89 | 1009.7 |
| 20260506073136 | 76 | 128 | 6.1 | 11.3 | 0.00 | 0.00 | 0.00 | 89 | 1010.1 |
| 20260506072632 | 76 | 120 | 7.0 | 11.3 | 0.00 | 0.00 | 0.00 | 89 | 1010.1 |
| 20260506072130 | 76 | 152 | 5.2 | 9.6 | 0.00 | 0.00 | 0.00 | 89 | 1010.1 |
| 20260506071628 | 76 | 119 | 7.0 | 9.6 | 0.00 | 0.00 | 0.00 | 89 | 1010.4 |
| 20260506071125 | 76 | 128 | 7.0 | 13.0 | 0.00 | 0.00 | 0.00 | 89 | 1010.4 |
| 20260506070622 | 76 | 134 | 8.7 | 13.0 | 0.00 | 0.00 | 0.00 | 89 | 1010.1 |
| 20260506070119 | 76 | 125 | 7.8 | 13.0 | 0.00 | 0.00 | 0.00 | 88 | 1010.4 |
| 20260506062056 | 76 | 96 | 8.7 | 14.8 | 0.00 | 0.00 | 0.00 | 89 | 1010.4 |
| 20260506061552 | 76 | 111 | 7.0 | 9.6 | 0.00 | 0.00 | 0.00 | 89 | 1010.4 |
| 20260506061050 | 76 | 118 | 8.7 | 10.4 | 0.00 | 0.00 | 0.00 | 89 | 1010.1 |
| 20260506060548 | 76 | 102 | 7.8 | 8.7 | 0.00 | 0.00 | 0.00 | 89 | 1010.4 |
| 20260506051017 | 77 | 111 | 7.0 | 10.4 | 0.00 | 0.00 | 0.00 | 88 | 1010.4 |
| 20260506050515 | 77 | 108 | 7.0 | 10.4 | 0.00 | 0.00 | 0.00 | 88 | 1010.4 |
| 20260506045005 | 77 | 120 | 8.7 | 13.0 | 0.00 | 0.00 | 0.00 | 87 | 1010.1 |
| 20260506044504 | 77 | 114 | 9.6 | 14.8 | 0.00 | 0.00 | 0.00 | 87 | 1010.4 |
| 20260506044000 | 77 | 107 | 10.4 | 13.9 | 0.00 | 0.00 | 0.00 | 87 | 1010.4 |
| 20260506043457 | 77 | 107 | 9.6 | 12.2 | 0.00 | 0.00 | 0.00 | 87 | 1010.1 |
| 20260506042955 | 78 | 113 | 9.6 | 13.9 | 0.00 | 0.00 | 0.00 | 87 | 1010.1 |
| 20260506042454 | 78 | 112 | 10.4 | 12.2 | 0.00 | 0.00 | 0.00 | 87 | 1010.1 |
| 20260506041951 | 78 | 127 | 7.8 | 13.0 | 0.00 | 0.00 | 0.00 | 86 | 1010.1 |
| 20260506041450 | 78 | 112 | 9.6 | 11.3 | 0.00 | 0.00 | 0.00 | 86 | 1010.1 |
| 20260506040947 | 78 | 113 | 8.7 | 10.4 | 0.00 | 0.00 | 0.00 | 86 | 1010.1 |
| 20260506040444 | 78 | 109 | 12.2 | 13.9 | 0.00 | 0.00 | 0.00 | 86 | 1009.7 |
| 20260506035940 | 78 | 124 | 10.4 | 13.0 | 0.00 | 0.00 | 0.00 | 85 | 1009.7 |
| 20260506035437 | 78 | 106 | 11.3 | 13.9 | 0.00 | 0.00 | 0.00 | 85 | 1009.7 |
| 20260506034934 | 78 | 118 | 11.3 | 14.8 | 0.00 | 0.00 | 0.00 | 85 | 1009.7 |
| 20260506034431 | 78 | 109 | 11.3 | 13.0 | 0.00 | 0.00 | 0.00 | 85 | 1009.7 |
| 20260506033928 | 78 | 112 | 10.4 | 12.2 | 0.00 | 0.00 | 0.00 | 85 | 1009.7 |
| 20260506033426 | 78 | 104 | 12.2 | 15.6 | 0.00 | 0.00 | 0.00 | 85 | 1009.7 |
| 20260506032922 | 78 | 123 | 10.4 | 15.6 | 0.00 | 0.00 | 0.00 | 84 | 1009.7 |
| 20260506032419 | 78 | 107 | 10.4 | 12.2 | 0.00 | 0.00 | 0.00 | 84 | 1009.7 |
| 20260506031916 | 79 | 106 | 13.0 | 15.6 | 0.00 | 0.00 | 0.00 | 84 | 1009.4 |
| 20260506031413 | 79 | 108 | 11.3 | 15.6 | 0.00 | 0.00 | 0.00 | 84 | 1009.4 |
| 20260506030911 | 79 | 111 | 12.2 | 13.9 | 0.00 | 0.00 | 0.00 | 83 | 1009.4 |
| 20260506030409 | 79 | 109 | 11.3 | 14.8 | 0.00 | 0.00 | 0.00 | 83 | 1009.4 |
| 20260506025905 | 79 | 111 | 10.4 | 12.2 | 0.00 | 0.00 | 0.00 | 83 | 1009.1 |
| 20260506025402 | 79 | 112 | 11.3 | 13.0 | 0.00 | 0.00 | 0.00 | 83 | 1009.1 |
| 20260506024859 | 79 | 106 | 10.4 | 13.0 | 0.00 | 0.00 | 0.00 | 82 | 1009.1 |
| 20260506024356 | 80 | 113 | 13.0 | 14.8 | 0.00 | 0.00 | 0.00 | 82 | 1008.7 |
| 20260506023852 | 80 | 110 | 11.3 | 15.6 | 0.00 | 0.00 | 0.00 | 81 | 1008.7 |
| 20260506023349 | 80 | 112 | 10.4 | 14.8 | 0.00 | 0.00 | 0.00 | 81 | 1008.7 |
| 20260506022845 | 80 | 107 | 10.4 | 14.8 | 0.00 | 0.00 | 0.00 | 80 | 1008.3 |
| 20260506022343 | 80 | 108 | 11.3 | 13.0 | 0.00 | 0.00 | 0.00 | 79 | 1008.3 |
| 20260506021841 | 81 | 108 | 15.6 | 18.2 | 0.00 | 0.00 | 0.00 | 78 | 1008.0 |
| 20260506021338 | 81 | 108 | 14.8 | 18.2 | 0.00 | 0.00 | 0.00 | 77 | 1008.0 |
| 20260506020834 | 81 | 106 | 8.7 | 12.2 | 0.00 | 0.00 | 0.00 | 76 | 1008.0 |
| 20260506020332 | 82 | 108 | 9.6 | 12.2 | 0.00 | 0.00 | 0.00 | 76 | 1008.0 |
| 20260506015830 | 82 | 103 | 11.3 | 13.0 | 0.00 | 0.00 | 0.00 | 75 | 1008.0 |
| 20260506015327 | 82 | 106 | 11.3 | 13.0 | 0.00 | 0.00 | 0.00 | 75 | 1008.0 |
| 20260506014824 | 82 | 116 | 10.4 | 11.3 | 0.00 | 0.00 | 0.00 | 75 | 1007.6 |
| 20260506014320 | 82 | 108 | 11.3 | 14.8 | 0.00 | 0.00 | 0.00 | 75 | 1008.0 |
| 20260506013817 | 82 | 102 | 9.6 | 11.3 | 0.00 | 0.00 | 0.00 | 75 | 1008.0 |
| 20260506013314 | 82 | 107 | 9.6 | 12.2 | 0.00 | 0.00 | 0.00 | 74 | 1008.0 |
| 20260506012811 | 82 | 109 | 11.3 | 13.9 | 0.00 | 0.00 | 0.00 | 74 | 1008.0 |
| 20260506012308 | 82 | 111 | 12.2 | 13.9 | 0.00 | 0.00 | 0.00 | 74 | 1007.6 |
| 20260506011805 | 83 | 104 | 11.3 | 13.9 | 0.00 | 0.00 | 0.00 | 73 | 1008.0 |
| 20260506011301 | 83 | 106 | 8.7 | 10.4 | 0.00 | 0.00 | 0.00 | 73 | 1008.0 |
| 20260506010800 | 83 | 107 | 7.8 | 9.6 | 0.00 | 0.00 | 0.00 | 73 | 1008.0 |
| 20260506010257 | 83 | 108 | 8.7 | 11.3 | 0.00 | 0.00 | 0.00 | 72 | 1008.0 |
| 20260506005754 | 83 | 113 | 7.0 | 8.7 | 0.00 | 0.00 | 0.00 | 72 | 1008.0 |
| 20260506005251 | 83 | 108 | 7.8 | 9.6 | 0.00 | 0.00 | 0.00 | 72 | 1008.0 |
| 20260506004746 | 83 | 104 | 6.1 | 8.7 | 0.00 | 0.00 | 0.00 | 72 | 1008.0 |
| 20260506004245 | 83 | 114 | 5.2 | 7.8 | 0.00 | 0.00 | 0.00 | 72 | 1007.6 |
| 20260506003740 | 83 | 112 | 5.2 | 7.0 | 0.00 | 0.00 | 0.00 | 72 | 1007.6 |
| 20260506003237 | 83 | 120 | 6.1 | 8.7 | 0.00 | 0.00 | 0.00 | 72 | 1007.6 |
| 20260506002733 | 84 | 108 | 7.8 | 9.6 | 0.00 | 0.00 | 0.00 | 72 | 1007.6 |
| 20260506002229 | 84 | 115 | 7.0 | 7.8 | 0.00 | 0.00 | 0.00 | 72 | 1007.6 |
| 20260506001725 | 84 | 102 | 7.8 | 9.6 | 0.00 | 0.00 | 0.00 | 71 | 1007.6 |
| 20260506001223 | 84 | 126 | 6.1 | 8.7 | 0.00 | 0.00 | 0.00 | 71 | 1007.3 |
| 20260506000719 | 84 | 102 | 8.7 | 10.4 | 0.00 | 0.00 | 0.00 | 71 | 1007.6 |
| 20260506000219 | 84 | 119 | 6.1 | 7.8 | 0.00 | 0.00 | 0.00 | 71 | 1007.3 |
| 20260505235714 | 84 | 152 | 6.1 | 10.4 | 0.00 | 0.00 | 0.00 | 71 | 1007.3 |
| 20260505235212 | 84 | 110 | 8.7 | 11.3 | 0.00 | 0.00 | 0.00 | 71 | 1007.3 |
| 20260505234708 | 84 | 107 | 12.2 | 15.6 | 0.00 | 0.00 | 0.00 | 70 | 1007.3 |
| 20260505234206 | 84 | 104 | 10.4 | 13.0 | 0.00 | 0.00 | 0.00 | 70 | 1007.3 |
| 20260505233702 | 84 | 107 | 8.7 | 12.2 | 0.00 | 0.00 | 0.00 | 70 | 1007.3 |
| 20260505233200 | 84 | 108 | 9.6 | 11.3 | 0.00 | 0.00 | 0.00 | 70 | 1007.3 |
| 20260505232657 | 84 | 161 | 7.8 | 11.3 | 0.00 | 0.00 | 0.00 | 69 | 1007.3 |
| 20260505232155 | 84 | 103 | 7.8 | 10.4 | 0.00 | 0.00 | 0.00 | 69 | 1007.3 |
| 20260505231651 | 84 | 115 | 6.1 | 8.7 | 0.00 | 0.00 | 0.00 | 69 | 1007.3 |
| 20260505231150 | 84 | 147 | 8.7 | 13.9 | 0.00 | 0.00 | 0.00 | 69 | 1007.3 |
| 20260505230648 | 84 | 133 | 10.4 | 15.6 | 0.00 | 0.00 | 0.00 | 69 | 1007.3 |
| 20260505230144 | 84 | 115 | 11.3 | 14.8 | 0.00 | 0.00 | 0.00 | 69 | 1006.9 |
| 20260505225640 | 84 | 133 | 10.4 | 13.0 | 0.00 | 0.00 | 0.00 | 69 | 1006.9 |
| 20260505225137 | 84 | 142 | 6.1 | 11.3 | 0.00 | 0.00 | 0.00 | 68 | 1007.3 |
| 20260505224633 | 84 | 142 | 3.5 | 7.0 | 0.00 | 0.00 | 0.00 | 69 | 1006.9 |
| 20260505224131 | 84 | 117 | 8.7 | 13.0 | 0.00 | 0.00 | 0.00 | 68 | 1006.9 |
| 20260505223628 | 85 | 128 | 4.3 | 9.6 | 0.00 | 0.00 | 0.00 | 67 | 1006.9 |
| 20260505223124 | 84 | 92 | 8.7 | 13.0 | 0.00 | 0.00 | 0.00 | 67 | 1007.3 |
| 20260505222621 | 84 | 125 | 11.3 | 14.8 | 0.00 | 0.00 | 0.00 | 68 | 1006.9 |
| 20260505222117 | 84 | 128 | 10.4 | 18.2 | 0.00 | 0.00 | 0.00 | 67 | 1006.9 |
| 20260505221614 | 84 | 141 | 7.8 | 13.9 | 0.00 | 0.00 | 0.00 | 68 | 1006.9 |
| 20260505221110 | 85 | 107 | 11.3 | 15.6 | 0.00 | 0.00 | 0.00 | 67 | 1007.3 |
| 20260505220608 | 85 | 107 | 7.0 | 13.0 | 0.00 | 0.00 | 0.00 | 66 | 1006.9 |
| 20260505220106 | 84 | 116 | 11.3 | 14.8 | 0.00 | 0.00 | 0.00 | 68 | 1007.3 |
| 20260505215603 | 84 | 120 | 7.8 | 11.3 | 0.00 | 0.00 | 0.00 | 68 | 1007.3 |
| 20260505215101 | 84 | 112 | 10.4 | 14.8 | 0.00 | 0.00 | 0.00 | 69 | 1007.3 |
| 20260505214559 | 84 | 113 | 11.3 | 13.9 | 0.00 | 0.00 | 0.00 | 68 | 1007.6 |
| 20260505214056 | 84 | 119 | 9.6 | 14.8 | 0.00 | 0.00 | 0.00 | 68 | 1007.6 |
| 20260505213553 | 85 | 127 | 10.4 | 16.5 | 0.00 | 0.00 | 0.00 | 66 | 1007.3 |
| 20260505213049 | 86 | 138 | 7.0 | 12.2 | 0.00 | 0.00 | 0.00 | 64 | 1007.6 |
| 20260505212546 | 86 | 157 | 5.2 | 9.6 | 0.00 | 0.00 | 0.00 | 65 | 1007.6 |
| 20260505212044 | 84 | 153 | 7.8 | 12.2 | 0.00 | 0.00 | 0.00 | 66 | 1007.6 |
| 20260505211540 | 84 | 138 | 9.6 | 15.6 | 0.00 | 0.00 | 0.00 | 67 | 1007.6 |
| 20260505211037 | 85 | 110 | 13.0 | 18.2 | 0.00 | 0.00 | 0.00 | 65 | 1007.6 |
| 20260505210534 | 84 | 118 | 11.3 | 14.8 | 0.00 | 0.00 | 0.00 | 67 | 1007.6 |
| 20260505210031 | 84 | 135 | 8.7 | 13.0 | 0.00 | 0.00 | 0.00 | 66 | 1007.6 |
| 20260505205529 | 84 | 116 | 8.7 | 13.0 | 0.00 | 0.00 | 0.00 | 66 | 1008.0 |
| 20260505205026 | 84 | 84 | 6.1 | 13.9 | 0.00 | 0.00 | 0.00 | 68 | 1008.0 |
| 20260505204523 | 84 | 145 | 7.8 | 13.0 | 0.00 | 0.00 | 0.00 | 68 | 1008.0 |
| 20260505204021 | 83 | 117 | 6.1 | 12.2 | 0.00 | 0.00 | 0.00 | 69 | 1008.3 |
| 20260505203517 | 83 | 119 | 6.1 | 9.6 | 0.00 | 0.00 | 0.00 | 70 | 1008.7 |
| 20260505203014 | 83 | 152 | 8.7 | 13.9 | 0.00 | 0.00 | 0.00 | 70 | 1008.7 |
| 20260505202510 | 83 | 127 | 1.7 | 4.3 | 0.00 | 0.00 | 0.00 | 71 | 1008.7 |
| 20260505202006 | 82 | 135 | 6.1 | 9.6 | 0.00 | 0.00 | 0.00 | 72 | 1009.1 |
| 20260505201504 | 82 | 173 | 6.1 | 11.3 | 0.00 | 0.00 | 0.00 | 72 | 1009.1 |
| 20260505201001 | 82 | 124 | 8.7 | 13.0 | 0.00 | 0.00 | 0.00 | 72 | 1009.1 |
| 20260505200459 | 82 | 150 | 5.2 | 11.3 | 0.00 | 0.00 | 0.00 | 72 | 1009.1 |
| 20260505195954 | 82 | 183 | 3.5 | 6.1 | 0.00 | 0.00 | 0.00 | 72 | 1009.1 |
| 20260505195451 | 81 | 182 | 6.1 | 9.6 | 0.00 | 0.00 | 0.00 | 73 | 1009.1 |
| 20260505194949 | 82 | 132 | 10.4 | 16.5 | 0.00 | 0.00 | 0.00 | 73 | 1009.1 |
| 20260505194446 | 82 | 165 | 3.5 | 9.6 | 0.00 | 0.00 | 0.00 | 72 | 1009.4 |
| 20260505193946 | 81 | 114 | 8.7 | 15.6 | 0.00 | 0.00 | 0.00 | 72 | 1009.1 |
| 20260505193444 | 81 | 89 | 6.1 | 11.3 | 0.00 | 0.00 | 0.00 | 72 | 1009.1 |
| 20260505192941 | 81 | 142 | 10.4 | 16.5 | 0.00 | 0.00 | 0.00 | 72 | 1009.1 |
| 20260505192440 | 81 | 142 | 9.6 | 13.9 | 0.00 | 0.00 | 0.00 | 72 | 1009.1 |
| 20260505191937 | 82 | 105 | 6.1 | 11.3 | 0.00 | 0.00 | 0.00 | 72 | 1009.4 |
| 20260505191435 | 81 | 151 | 6.1 | 10.4 | 0.00 | 0.00 | 0.00 | 74 | 1009.4 |
| 20260505190932 | 81 | 135 | 8.7 | 12.2 | 0.00 | 0.00 | 0.00 | 74 | 1009.4 |
| 20260505190427 | 80 | 159 | 6.1 | 12.2 | 0.00 | 0.00 | 0.00 | 74 | 1009.4 |
| 20260505185922 | 81 | 233 | 3.5 | 10.4 | 0.00 | 0.00 | 0.00 | 74 | 1009.7 |
| 20260505185420 | 80 | 126 | 7.8 | 13.0 | 0.00 | 0.00 | 0.00 | 75 | 1009.7 |
| 20260505184916 | 80 | 182 | 7.0 | 11.3 | 0.00 | 0.00 | 0.00 | 74 | 1009.7 |
| 20260505184413 | 80 | 136 | 7.0 | 11.3 | 0.00 | 0.00 | 0.00 | 75 | 1009.7 |
| 20260505183910 | 79 | 119 | 8.7 | 12.2 | 0.00 | 0.00 | 0.00 | 77 | 1009.7 |
| 20260505183407 | 79 | 168 | 5.2 | 9.6 | 0.00 | 0.00 | 0.00 | 77 | 1010.1 |
| 20260505182903 | 79 | 166 | 4.3 | 8.7 | 0.00 | 0.00 | 0.00 | 76 | 1010.1 |
| 20260505182400 | 80 | 141 | 6.1 | 13.0 | 0.00 | 0.00 | 0.00 | 76 | 1010.1 |
| 20260505181857 | 80 | 349 | 0.9 | 3.5 | 0.00 | 0.00 | 0.00 | 76 | 1010.1 |
| 20260505181354 | 79 | 125 | 9.6 | 13.9 | 0.00 | 0.00 | 0.00 | 78 | 1010.1 |
| 20260505180851 | 78 | 213 | 7.0 | 9.6 | 0.00 | 0.00 | 0.00 | 79 | 1010.1 |
| 20260505180347 | 78 | 145 | 5.2 | 9.6 | 0.00 | 0.00 | 0.00 | 78 | 1010.4 |
| 20260505175844 | 77 | 180 | 3.5 | 7.0 | 0.00 | 0.00 | 0.00 | 80 | 1010.4 |
| 20260505175340 | 77 | 144 | 8.7 | 12.2 | 0.00 | 0.00 | 0.00 | 80 | 1010.4 |
| 20260505174837 | 77 | 180 | 7.0 | 10.4 | 0.00 | 0.00 | 0.00 | 81 | 1010.8 |
| 20260505174335 | 77 | 248 | 4.3 | 9.6 | 0.00 | 0.00 | 0.00 | 81 | 1010.8 |
| 20260505173830 | 76 | 173 | 1.7 | 7.0 | 0.00 | 0.00 | 0.00 | 82 | 1010.8 |
| 20260505173327 | 76 | 202 | 6.1 | 11.3 | 0.00 | 0.00 | 0.00 | 82 | 1010.8 |
| 20260505172824 | 76 | 205 | 7.8 | 11.3 | 0.00 | 0.00 | 0.00 | 83 | 1010.8 |
| 20260505172322 | 76 | 178 | 7.8 | 10.4 | 0.00 | 0.00 | 0.00 | 82 | 1010.8 |
| 20260505171821 | 76 | 191 | 4.3 | 7.0 | 0.00 | 0.00 | 0.00 | 83 | 1010.8 |
| 20260505171319 | 76 | 175 | 5.2 | 9.6 | 0.00 | 0.00 | 0.00 | 83 | 1010.8 |
| 20260505170815 | 76 | 175 | 5.2 | 9.6 | 0.00 | 0.00 | 0.00 | 83 | 1010.8 |
| 20260505170312 | 76 | 134 | 3.5 | 7.8 | 0.00 | 0.00 | 0.00 | 83 | 1010.8 |
| 20260505165807 | 75 | 220 | 9.6 | 13.0 | 0.00 | 0.00 | 0.00 | 83 | 1010.8 |
| 20260505165306 | 76 | 187 | 5.2 | 8.7 | 0.00 | 0.00 | 0.00 | 82 | 1010.8 |
| 20260505164759 | 76 | 178 | 4.3 | 9.6 | 0.00 | 0.00 | 0.00 | 82 | 1010.8 |
| 20260505164256 | 75 | 142 | 3.5 | 7.0 | 0.00 | 0.00 | 0.00 | 83 | 1010.8 |
| 20260505163754 | 75 | 177 | 9.6 | 13.0 | 0.00 | 0.00 | 0.00 | 83 | 1010.8 |
| 20260505163253 | 75 | 138 | 4.3 | 11.3 | 0.00 | 0.00 | 0.00 | 83 | 1010.8 |
| 20260505162750 | 75 | 132 | 5.2 | 7.8 | 0.00 | 0.00 | 0.00 | 85 | 1010.8 |
| 20260505162246 | 74 | 184 | 5.2 | 8.7 | 0.00 | 0.00 | 0.00 | 86 | 1011.1 |
| 20260505161744 | 74 | 210 | 8.7 | 12.2 | 0.00 | 0.00 | 0.00 | 86 | 1011.1 |
| 20260505161241 | 74 | 286 | 0.9 | 1.7 | 0.00 | 0.00 | 0.00 | 87 | 1010.8 |
| 20260505160738 | 73 | 216 | 5.2 | 8.7 | 0.00 | 0.00 | 0.00 | 87 | 1010.8 |
| 20260505160236 | 73 | 202 | 7.8 | 9.6 | 0.00 | 0.00 | 0.00 | 87 | 1011.1 |
| 20260505153215 | 73 | 182 | 4.3 | 10.4 | 0.00 | 0.00 | 0.00 | 88 | 1011.1 |
| 20260505152712 | 73 | 137 | 7.0 | 12.2 | 0.00 | 0.00 | 0.00 | 87 | 1011.1 |
| 20260505152208 | 73 | 180 | 2.6 | 7.0 | 0.00 | 0.00 | 0.00 | 88 | 1011.1 |
| 20260505151703 | 73 | 164 | 5.2 | 7.8 | 0.00 | 0.00 | 0.00 | 88 | 1011.1 |
| 20260505151201 | 73 | 176 | 7.8 | 12.2 | 0.00 | 0.00 | 0.00 | 88 | 1010.8 |
| 20260505150657 | 73 | 125 | 7.0 | 13.0 | 0.00 | 0.00 | 0.00 | 89 | 1010.8 |
| 20260505150155 | 72 | 188 | 4.3 | 7.8 | 0.00 | 0.00 | 0.00 | 89 | 1010.8 |
| 20260505140628 | 72 | 165 | 7.0 | 13.0 | 0.00 | 0.00 | 0.00 | 90 | 1010.8 |
| 20260505140125 | 72 | 169 | 3.5 | 7.0 | 0.00 | 0.00 | 0.00 | 90 | 1010.8 |
| 20260505124543 | 71 | 133 | 6.1 | 9.6 | 0.00 | 0.00 | 0.00 | 90 | 1009.7 |
| 20260505124039 | 71 | 129 | 5.2 | 7.8 | 0.00 | 0.00 | 0.00 | 91 | 1009.7 |
| 20260505123536 | 71 | 180 | 5.2 | 10.4 | 0.00 | 0.00 | 0.00 | 90 | 1009.7 |
| 20260505123032 | 71 | 142 | 7.0 | 10.4 | 0.00 | 0.00 | 0.00 | 91 | 1009.7 |
| 20260505122529 | 71 | 171 | 4.3 | 7.8 | 0.00 | 0.00 | 0.00 | 91 | 1009.7 |
| 20260505122026 | 71 | 104 | 7.8 | 10.4 | 0.00 | 0.00 | 0.00 | 91 | 1009.7 |
| 20260505121523 | 71 | 140 | 8.7 | 12.2 | 0.00 | 0.00 | 0.00 | 91 | 1009.4 |
| 20260505121019 | 71 | 153 | 7.0 | 11.3 | 0.00 | 0.00 | 0.00 | 91 | 1009.7 |
| 20260505120516 | 71 | 170 | 7.0 | 13.0 | 0.00 | 0.00 | 0.00 | 90 | 1009.7 |
| 20260505120011 | 71 | 113 | 6.1 | 11.3 | 0.00 | 0.00 | 0.00 | 90 | 1009.4 |
| 20260505115506 | 71 | 157 | 7.0 | 11.3 | 0.00 | 0.00 | 0.00 | 90 | 1009.7 |
| 20260505115004 | 71 | 180 | 4.3 | 7.8 | 0.00 | 0.00 | 0.00 | 90 | 1009.7 |
| 20260505114500 | 71 | 159 | 7.8 | 9.6 | 0.00 | 0.00 | 0.00 | 90 | 1009.4 |